Hourly Data Report for September 07, 2017

All times are specified in Local Standard Time (LST). Add 1 hour to adjust for Daylight Saving Time where and when it is observed.

ST. JOHN'S INTL A
NEWFOUNDLAND

47°37'07.000" N
52°45'09.000" W
140.50 m
8403505
71801
YYT

Download Data

Hourly Data (September 2017)
Hourly Data Report for September 7, 2017
Temp Definition
°C
Dew Point Temp Definition
°C
Rel Hum Definition
%
Wind Dir Definition
10's deg

Wind Spd Definition
km/h
Visibility Definition
km
Stn Press Definition
kPa
Hmdx Definition


Wind Chill Definition


Weather Definition


TIME
00:30 Legend Double Dagger 18.2 17.1 94 23 21 24.1 100.94     LegendNANA
01:30 Legend Double Dagger 19.1 17.7 92 22 19 24.1 100.89     LegendNANA
02:30 Legend Double Dagger 18.8 18.0 95 22 21 24.1 100.89     Mostly Cloudy
03:30 Legend Double Dagger 20.0 19.6 97 23 18 6.4 100.90 27   Fog
04:30 Legend Double Dagger 20.4 19.7 96 22 20 6.4 100.89 28   Drizzle,Fog
05:30 Legend Double Dagger 20.5 19.9 97 23 16 24.1 100.90 28   Cloudy
06:30 Legend Double Dagger 21.3 20.4 95 25 17 19.3 100.88 29   LegendNANA
07:30 Legend Double Dagger 21.8 19.7 88 25 27 24.1 100.83 29   LegendNANA
08:30 Legend Double Dagger 22.4 19.9 86 25 29 24.1 100.82 30   Mostly Cloudy
09:30 Legend Double Dagger 23.8 20.1 79 25 30 24.1 100.82 31   LegendNANA
10:30 Legend Double Dagger 24.7 19.7 73 25 37 24.1 100.83 32   LegendNANA
11:30 Legend Double Dagger 25.5 19.9 71 24 33 24.1 100.78 33   Mostly Cloudy
12:30 Legend Double Dagger 25.6 19.2 67 24 40 24.1 100.78 33   LegendNANA
13:30 Legend Double Dagger 25.3 19.7 71 25 41 24.1 100.76 33   LegendNANA
14:30 Legend Double Dagger 25.7 20.0 70 24 32 24.1 100.72 33   Mostly Cloudy
15:30 Legend Double Dagger 24.3 19.9 76 23 33 24.1 100.69 32   LegendNANA
16:30 Legend Double Dagger 24.3 19.8 76 24 29 24.1 100.69 32   LegendNANA
17:30 Legend Double Dagger 23.3 19.8 80 24 35 24.1 100.63 31   Mostly Cloudy
18:30 Legend Double Dagger 21.9 19.7 87 23 32 24.1 100.66 29   LegendNANA
19:30 Legend Double Dagger 22.1 20.2 89 22 22 24.1 100.63 30   LegendNANA
20:30 Legend Double Dagger 22.4 20.8 90 22 27 24.1 100.57 31   Mainly Clear
21:30 Legend Double Dagger 22.2 20.4 89 23 30 24.1 100.51 30   LegendNANA
22:30 Legend Double Dagger 21.7 20.2 91 22 31 24.1 100.47 29   LegendNANA
23:30 Legend Double Dagger 21.9 20.2 90 22 28 24.1 100.44 30   Cloudy

Notes on Data Quality.

Legend

  • E = Estimated
  • M = Missing
  • NA = Not Available
  • ‡ = Partner data that is not subject to review by the National Climate Archives
Date modified: